Weather in Goltsovka

Russia / Ivanovo Oblast     57°28′28″N   41°53′58″E
temp.,
°C
wind,
m/s
gust,
m/s
humid.,
%
clouds,
%
prec.,
mm/h
press.,
hPa
HPBL,
m
22 october, fri
fri2200:00+9ssw41295100 0.0 993468
03:00+9ssw51393100 1.3 991621
06:00+9sw7158881 0.1 989836
09:00+10sw6148460 0.1 989902
12:00+12wsw7137223 0.1 9901369
15:00+12wsw6136558 0.1 9911401
18:00+8w7147428 0.6 9941215
21:00+7wsw7147546 0.6 9961131
23 october, sat
sat2300:00+6wsw7136989 0.0 9981092
03:00+6wsw71465100 0.0 9991568
06:00+5sw6137394 0.0 999754
09:00+5sw61177100 0.0 1000893
12:00+8sw596992 0.1 10021188
15:00+6sw5977100 0.2 1003986
18:00+6sw41074100 0.1 1003844
21:00+5sw5118063 0.3 1004784
24 october, sun
sun2400:00+3sw41092100 0.1 1004735
03:00+4wsw4996100 2.3 1004712
06:00+4wsw3887100 0.1 1005517
09:00+4wsw3588100 0.1 1006645
12:00+4wsw239499 0.3 1007489
15:00+4wnw2393100 0.4 1008529
18:00+3nw3697100 0.3 1010572
21:00+1n61396100 1.1 1013742
25 october, mon
mon2500:000n5117882 0.3 1017912
03:00−2nnw512845 0.3 1021557
06:00−2nw411875 0.0 1023447
09:00−1nw410745 0.0 1025492
12:00+2nw475629 0.0 1026814
15:00+2wnw475644 0.0 1026823
18:000wsw3971100 0.0 1026345
21:000sw4117286 0.0 1025556
26 october, tue
tue2600:000sw51472100 0.0 1024607
03:000wsw51375100 0.0 1022612
06:00+1wsw51376100 0.4 1021660
09:00+1wsw5137882 0.4 1021567
12:00+4wsw51269100 0.0 1020622
15:00+4wsw51271100 0.0 1019666
18:00+2sw41379100 0.0 1018483
21:00+1sw51379100 0.0 1017481